RH
26 26 28 24 24 30 22 17 13 8 5 4 4 3 4 4 5 5 9 10 9 6 3 2 5 9 6 10 34 41 48 49 37 37 23 19 36 26 16 8 7 7 20 46
33 28 29 27 23 33 25 18 14 11 8 6 5 5 5 6 7 6 9 12 12 8 5 2 6 10 13 8 24 53 75 58 46 35 29 26 12 15 14 14 10 6 17 36
50 34 31 29 25 33 32 20 16 12 10 8 6 7 7 6 7 7 11 14 18 14 4 3 4 6 8 8 20 37 74 100 78 28 24 22 16 6 6 8 9 6 27 60
72 36 32 31 29 34 36 26 20 15 12 10 9 8 7 8 7 9 11 14 21 24 8 3 4 5 6 13 17 24 52 89 98 93 75 18 19 12 8 6 7 43 98 25
74 46 32 32 34 40 37 28 22 18 15 12 10 9 8 8 5 6 8 10 20 26 16 3 4 5 12 14 16 18 24 84 93 100 83 71 33 16 9 7 6 98 99 100
76 45 35 35 36 40 40 34 25 22 18 15 14 11 10 8 6 6 8 9 14 20 21 3 8 12 13 14 17 17 73 99 100 97 93 92 90 16 10 13 100 100 98 98
78 56 41 38 37 44 44 40 30 25 21 17 15 12 11 10 8 7 8 6 8 13 17 7 5 10 13 12 12 18 67 100 99 100 92 68 16 12 9 31 86 95 79 80
83 82 58 45 44 49 49 45 41 30 25 20 16 15 12 12 9 7 6 5 7 8 15 14 2 8 11 12 12 18 43 100 98 52 58 54 71 80 42 25 85 97 87 71
76 84 78 67 48 53 55 54 48 41 32 25 20 16 15 12 8 7 5 5 5 6 8 11 3 4 9 10 10 14 18 89 99 75 57 72 92 94 84 90 83 55 58 86
70 75 83 79 72 60 57 61 56 47 35 29 23 18 16 12 10 8 6 6 4 4 6 8 10 2 5 8 9 10 16 26 86 99 90 84 67 77 84 76 87 76 45 55
70 69 75 87 84 78 71 68 66 51 38 31 24 23 18 15 11 9 6 5 3 3 4 6 8 4 2 4 7 9 10 15 26 68 97 99 98 93 91 86 93 91 91 66
76 66 70 81 85 81 87 84 79 78 62 40 30 24 21 17 12 11 8 5 4 3 4 4 7 5 3 1 3 6 8 8 12 15 34 89 91 96 96 96 97 97 97 98
75 67 68 74 85 81 77 76 86 83 76 64 38 30 25 20 16 13 10 7 5 5 3 3 4 7 5 3 2 2 4 6 7 7 10 14 28 61 67 76 88 92 96 98
75 73 71 74 76 79 73 66 71 69 78 70 43 35 32 22 19 15 13 9 7 6 4 4 3 4 7 5 4 2 2 2 2 5 6 7 8 12 28 47 47 49 54 65
75 72 73 79 78 74 69 67 65 65 83 70 46 35 49 24 22 20 17 14 12 8 8 6 4 3 4 7 7 6 4 3 2 2 2 3 5 6 7 9 15 24 33 37
88 67 70 79 82 79 76 71 71 76 74 75 48 41 45 30 26 26 23 19 17 14 10 8 6 4 3 4 6 9 10 6 5 4 4 3 1 2 4 5 6 7 9 11
90 69 63 70 80 79 74 84 80 78 79 78 66 47 44 37 30 26 28 26 20 18 16 11 9 6 3 3 3 5 7 10 11 12 10 6 5 3 1 2 4 5 5 5
88 80 63 62 71 60 78 81 84 84 85 82 78 67 45 43 39 33 30 30 28 24 22 17 12 10 6 3 3 3 4 6 8 11 13 16 15 8 5 2 2 2 3 4
88 86 76 67 68 57 72 79 82 82 91 82 85 89 65 47 50 43 36 32 33 31 29 26 19 13 11 8 5 4 4 4 6 8 8 8 8 13 17 7 4 2 1 1
84 95 84 69 57 52 74 85 75 75 80 85 88 88 87 58 54 51 42 37 37 36 37 34 30 20 14 12 10 6 5 5 3 4 6 8 10 10 12 13 19 12 4 3
82 85 80 81 62 45 84 82 74 66 78 83 75 85 86 85 70 62 52 53 45 42 41 42 38 32 20 15 12 11 9 7 6 5 4 5 6 8 12 10 10 11 15 21
71 84 75 81 68 52 71 77 77 76 69 72 70 75 90 84 84 91 96 76 52 44 46 49 47 41 32 21 17 14 12 11 9 7 6 5 5 4 5 6 10 10 10 14
62 77 83 85 78 86 71 66 66 73 82 68 66 70 78 83 87 91 93 97 86 64 52 52 56 50 44 33 24 19 17 14 12 11 11 10 9 8 7 6 6 6 8 9
64 69 73 71 66 85 86 80 74 67 65 78 70 71 73 74 80 90 96 96 99 95 69 58 53 52 51 47 37 28 25 22 16 14 13 12 12 12 11 10 9 8 8 9
57 54 54 58 73 90 88 91 84 68 58 75 80 81 79 83 86 89 92 92 93 100 88 73 76 64 63 54 49 41 34 31 26 22 19 17 16 15 15 15 14 13 12 11
58 54 52 61 91 72 85 86 80 73 66 69 84 81 87 91 86 87 86 88 94 98 100 98 96 82 74 71 67 55 46 38 36 32 29 27 24 21 19 19 18 18 17 16
Wind_Speed
20 20 18 17 16 15 15 15 17 19 20 21 24 28 32 36 38 39 41 44 47 49 53 53 47 42 36 29 31 23 15 13 12 8 8 12 21 25 24 33 37 47 52 51
21 20 19 19 17 15 15 16 17 18 19 20 23 26 30 34 38 39 41 45 47 49 54 59 47 42 36 26 28 21 14 7 13 15 12 10 16 23 26 30 36 41 51 48
21 21 20 19 18 16 17 16 18 17 19 20 21 24 28 31 37 39 41 44 47 50 55 62 53 44 36 23 26 19 17 7 4 11 16 16 17 21 24 33 33 37 42 36
22 20 19 19 18 16 16 17 19 19 19 21 22 22 27 29 34 37 39 42 46 50 56 63 54 44 32 25 28 24 13 17 11 9 11 15 22 22 23 30 31 29 27 33
19 19 19 19 17 16 16 17 18 18 19 21 22 24 26 29 33 36 39 42 45 50 55 60 48 40 34 33 32 26 21 14 18 9 16 18 19 26 25 31 36 28 41 39
16 18 18 18 17 16 16 17 17 17 18 19 21 23 25 27 31 36 37 40 43 47 52 57 41 39 38 39 36 27 26 28 15 3 9 14 20 28 30 37 44 38 37 39
13 17 18 18 17 16 16 17 17 16 15 18 18 19 23 23 27 32 34 38 42 44 48 53 40 37 37 39 40 31 27 33 21 12 17 12 7 17 24 28 36 40 39 35
15 16 19 17 16 16 15 16 18 18 15 15 17 17 18 19 23 28 32 36 40 41 43 49 48 38 35 40 43 35 30 38 25 24 17 5 19 14 16 15 31 25 38 35
19 16 18 20 17 16 16 16 17 19 18 15 15 15 17 17 20 24 29 33 35 37 39 44 49 36 35 37 42 39 31 39 27 22 8 6 8 12 14 13 18 30 33 39
23 21 17 19 21 19 18 18 17 18 18 15 14 14 14 15 17 19 24 29 32 33 36 38 44 47 32 35 37 41 36 29 40 29 17 12 6 4 5 8 13 20 26 36
26 24 19 19 21 22 22 22 20 19 17 17 14 13 10 11 13 15 19 24 28 30 32 34 39 44 45 31 32 35 39 35 29 36 35 22 21 16 11 9 11 10 16 23
28 27 22 20 19 20 23 25 24 24 21 19 17 11 11 10 10 11 15 20 23 27 28 31 33 36 43 44 31 28 30 33 35 29 25 32 28 27 20 15 17 18 13 15
30 27 23 22 21 19 18 20 23 22 21 19 20 12 16 11 8 8 10 14 18 22 27 26 29 29 33 39 41 36 26 25 26 29 29 25 20 20 21 20 19 17 14 14
34 27 25 24 25 22 20 20 20 20 21 22 14 14 20 14 9 6 8 10 13 17 20 25 24 27 26 28 34 38 39 35 26 21 21 24 24 21 17 16 14 14 15 13
36 32 27 27 27 24 22 21 21 19 22 22 18 12 19 21 11 8 6 7 8 11 14 18 22 23 25 24 25 29 33 34 36 37 31 19 15 17 18 18 12 11 10 9
34 33 31 27 30 29 24 20 22 21 22 24 20 12 25 21 15 13 9 6 8 8 10 11 15 20 22 23 22 24 26 28 30 31 31 35 31 16 9 12 14 15 14 13
36 35 35 31 30 34 29 20 24 24 21 24 22 20 23 21 19 18 15 10 7 7 7 6 8 13 17 18 20 20 21 23 25 26 26 27 29 31 28 15 6 6 7 7
39 35 37 37 32 37 25 22 24 27 20 23 20 26 22 21 19 20 19 16 11 6 6 5 3 5 10 12 16 16 17 18 19 21 22 24 24 23 25 26 22 18 13 10
37 35 37 41 37 37 24 23 27 28 18 25 20 26 26 23 20 24 22 21 16 12 8 7 4 3 4 8 10 13 14 14 16 17 17 17 18 20 20 18 18 20 20 18
37 37 39 40 40 39 28 20 22 29 26 25 27 24 26 24 22 28 23 22 20 17 14 11 9 6 6 6 6 7 10 11 11 12 14 17 17 15 14 14 15 13 12 11
43 40 40 39 41 41 26 25 24 26 21 30 29 23 23 26 24 26 24 23 24 23 20 16 14 10 9 9 9 8 7 7 9 10 11 12 14 16 14 13 12 12 11 10
46 42 44 42 41 38 32 31 29 28 22 25 25 23 20 19 20 25 30 29 26 26 24 21 19 16 13 12 13 12 11 10 9 8 9 10 10 11 14 15 14 11 11 11
48 44 44 46 42 42 39 34 34 31 30 26 28 28 26 23 21 21 22 23 27 27 28 25 23 20 17 15 16 16 15 14 14 13 12 11 10 12 13 13 15 16 17 15
46 45 46 46 42 40 41 40 36 36 39 33 30 29 29 26 26 25 24 24 27 29 28 28 27 25 22 21 19 19 18 18 17 17 16 14 12 11 12 14 15 15 16 18
47 46 44 43 40 38 41 38 41 40 40 37 32 31 29 28 30 29 27 27 27 28 29 29 28 28 25 25 24 23 22 22 21 21 21 20 19 18 17 15 16 17 19 21
51 46 45 41 37 41 35 38 40 36 38 39 38 35 33 31 31 31 33 31 29 29 30 34 34 33 29 27 27 26 28 28 26 25 24 22 23 23 22 22 21 20 20 21
Wind_Direction
272 273 276 278 282 292 293 284 287 294 303 310 316 321 326 330 330 337 348 352 353 358 357 357 348 342 340 340 346 359 331 285 290 308 304 233 204 202 210 216 212 218 222 222
274 272 273 276 279 288 293 285 285 293 306 315 321 322 328 331 331 337 345 350 357 360 357 357 352 344 348 348 350 350 354 341 266 269 268 254 211 211 209 209 209 210 217 223
281 275 272 273 275 283 289 284 280 288 301 313 320 323 325 332 332 338 346 351 0 2 0 359 356 354 356 358 354 346 346 329 360 248 241 238 217 206 208 202 208 205 212 215
282 278 273 273 274 279 286 286 281 284 293 304 315 324 323 332 333 340 341 349 357 2 4 3 2 7 14 13 359 354 327 333 336 256 226 217 222 202 208 197 196 182 194 212
279 275 274 273 275 281 288 284 286 288 291 300 312 322 326 330 335 340 340 346 355 1 5 8 13 24 28 15 8 6 358 330 316 299 222 209 203 203 202 194 190 177 191 187
276 274 273 272 276 282 290 288 286 287 292 296 308 318 326 334 340 339 341 346 353 359 5 12 18 22 23 19 14 14 6 28 25 295 216 212 198 197 201 190 170 185 207 192
282 272 273 270 275 280 285 290 287 290 288 294 303 315 328 338 340 339 342 346 351 2 4 12 18 24 21 20 17 21 13 31 43 81 78 73 150 196 199 198 195 189 194 197
277 273 269 271 272 277 286 290 290 291 288 289 297 311 324 332 336 340 343 349 353 2 5 10 20 19 21 23 22 25 25 38 56 49 45 129 156 141 173 200 203 188 193 201
276 273 267 265 269 273 277 288 293 292 291 289 288 298 314 329 335 343 349 351 358 2 8 9 16 21 21 25 25 26 37 39 69 74 54 22 75 121 145 178 206 197 204 206
269 274 269 263 262 264 273 282 291 293 292 288 279 290 309 327 335 348 351 352 1 4 9 9 11 22 19 25 28 30 35 42 50 77 76 84 89 190 185 190 198 212 208 203
266 264 270 266 260 259 265 270 279 289 291 289 279 282 295 316 331 346 353 358 2 6 8 10 11 16 26 22 27 32 36 41 43 46 72 102 92 97 110 141 157 187 195 205
267 264 261 262 264 263 260 266 271 274 281 285 283 266 280 291 321 348 4 1 6 8 8 9 12 16 18 27 27 30 36 42 47 49 46 54 63 65 93 85 86 114 123 176
261 264 258 256 259 259 257 266 268 272 274 279 276 274 271 265 294 338 7 6 1 7 9 7 7 12 20 19 29 35 34 36 43 51 55 57 65 77 75 69 58 48 67 114
261 261 258 253 255 254 257 265 266 270 275 263 278 256 264 253 270 311 346 7 3 358 6 5 3 4 15 21 22 29 37 41 39 44 53 60 61 62 75 77 82 85 73 58
254 259 257 253 254 257 254 262 269 273 269 262 256 263 259 259 258 267 307 343 356 355 360 5 0 358 3 11 21 22 27 32 39 43 44 43 57 67 68 68 71 74 81 85
252 256 258 254 255 255 255 264 266 262 264 263 261 249 263 265 258 262 263 298 321 341 351 2 4 357 0 359 7 16 21 24 28 34 37 42 46 48 60 76 76 73 72 74
257 256 258 256 256 259 256 260 260 264 268 268 264 266 261 264 253 258 257 261 282 313 333 345 3 360 354 357 1 2 9 15 22 25 28 34 41 44 48 50 63 83 84 84
253 253 256 260 257 258 262 253 260 269 273 274 267 260 264 265 259 257 257 256 256 270 300 306 314 355 348 348 353 358 1 1 7 12 21 26 31 37 46 47 57 63 65 66
250 251 256 259 262 263 265 252 253 262 265 275 276 260 258 258 261 259 254 254 250 252 260 281 280 279 314 330 330 336 350 355 355 358 1 9 20 27 32 38 45 54 59 58
251 251 250 255 260 263 266 266 261 260 256 265 272 269 258 255 254 260 263 261 256 252 253 262 271 259 259 282 294 306 317 332 343 342 348 348 351 6 12 17 23 26 40 47
246 251 248 254 260 259 271 274 265 267 271 254 262 269 267 251 254 259 262 261 260 259 256 258 262 259 243 248 254 259 267 288 305 315 322 327 335 337 344 352 3 6 5 5
244 254 247 250 257 265 264 262 268 269 271 266 260 261 259 261 257 258 260 258 259 258 257 258 259 258 251 241 240 243 246 246 247 264 289 300 308 313 318 321 327 334 331 330
247 252 257 249 256 261 263 268 270 273 268 267 265 258 257 259 263 262 263 260 253 259 259 258 257 257 257 250 245 241 240 244 241 239 249 263 281 288 297 300 299 304 303 303
246 251 253 256 256 258 258 259 266 274 273 265 264 263 256 252 252 254 253 254 258 254 257 260 258 260 257 254 250 249 248 246 243 239 237 238 246 254 263 274 278 284 289 293
240 248 254 256 263 267 259 255 256 261 266 268 261 259 256 251 255 253 251 252 255 257 250 257 261 264 260 258 253 251 251 248 246 244 244 243 242 243 249 255 262 265 268 273
243 249 252 256 257 265 262 258 260 264 266 264 263 258 251 249 250 254 256 254 254 257 254 252 254 255 259 258 255 250 253 254 248 248 248 248 248 249 250 254 254 256 258 263